CW3276 Weather Reports


Display with metric or nautical units.
time (UTC)temp
F
wind
direction
speed
MPH
gust
MPH
rain 1hr
in
rain 24hr
in
rain mn
in
humidity
%
barometer
mb
20260509024149 41 45 0.0 0.0 0.00 0.00 0.00 83 1019.2
20260509023121 41 45 0.0 1.0 0.00 0.00 0.00 82 1019.2
20260509022052 42 45 0.0 0.0 0.00 0.00 0.00 82 1019.3
20260509021038 42 45 0.0 0.0 0.00 0.00 0.00 82 1019.3
20260509020017 42 45 0.0 0.0 0.00 0.00 0.00 81 1019.3
20260509014952 42 45 0.0 0.0 0.00 0.00 0.00 81 1019.3
20260509012908 43 45 0.0 2.0 0.00 0.00 0.00 80 1019.3
20260509011847 43 45 0.0 2.0 0.00 0.00 0.00 80 1019.2
20260509010841 43 45 0.0 1.0 0.00 0.00 0.00 79 1019.3
20260509005828 44 45 0.0 2.0 0.00 0.00 0.00 79 1019.3
20260509003729 44 45 0.0 2.0 0.00 0.00 0.00 78 1019.3
20260509002711 45 45 0.0 2.0 0.00 0.00 0.00 77 1019.3
20260509001708 45 45 0.0 1.0 0.00 0.00 0.00 77 1019.3
20260509000637 45 45 0.0 1.0 0.00 0.00 0.00 76 1019.3
20260508233534 47 45 0.0 1.0 0.00 0.00 0.00 75 1019.4
20260508232525 47 45 0.0 1.0 0.00 0.00 0.00 75 1019.4
20260508231517 47 45 1.0 5.0 0.00 0.00 0.00 75 1019.3
20260508230512 48 0 0.0 3.0 0.00 0.00 0.00 76 1019.3
20260508225447 48 0 1.0 4.0 0.00 0.00 0.00 76 1019.3
20260508224429 48 68 1.0 4.0 0.00 0.00 0.00 75 1019.4
20260508223354 49 68 1.0 4.0 0.00 0.00 0.00 75 1019.4
20260508222323 49 45 2.0 7.0 0.00 0.00 0.00 76 1019.3
20260508221249 49 0 2.0 4.0 0.00 0.00 0.00 77 1019.3
20260508215148 50 45 1.0 6.0 0.00 0.00 0.00 77 1019.3
20260508214131 50 0 2.0 6.0 0.00 0.00 0.00 76 1019.1
20260508213104 51 90 1.0 4.0 0.00 0.00 0.00 76 1019.1
20260508212038 51 0 1.0 5.0 0.00 0.00 0.00 75 1019.0
20260508211019 51 0 1.0 3.0 0.00 0.00 0.00 74 1019.0
20260508205955 51 0 1.0 4.0 0.00 0.00 0.00 74 1019.0
20260508204936 52 0 1.0 4.0 0.00 0.00 0.00 73 1018.9
20260508203904 52 0 1.0 4.0 0.00 0.00 0.00 72 1018.8
20260508202838 52 0 1.0 4.0 0.00 0.00 0.00 71 1018.8
20260508201808 53 0 1.0 3.0 0.00 0.00 0.00 69 1018.7
20260508195705 54 45 1.0 5.0 0.00 0.00 0.00 67 1018.7
20260508194646 54 45 1.0 4.0 0.00 0.00 0.00 66 1018.5
20260508192626 55 45 1.0 5.0 0.00 0.00 0.00 63 1018.2
20260508191611 56 45 2.0 6.0 0.00 0.00 0.00 62 1018.1
20260508190552 56 23 2.0 5.0 0.00 0.00 0.00 61 1018.1
20260508184518 57 45 3.0 7.0 0.00 0.00 0.00 59 1017.9
20260508182449 58 90 1.0 4.0 0.00 0.00 0.00 56 1017.8
20260508181420 58 45 2.0 5.0 0.00 0.00 0.00 53 1017.7
20260508180351 58 90 3.0 7.0 0.00 0.00 0.00 51 1017.6
20260508175347 58 90 3.0 10.0 0.00 0.00 0.00 51 1017.6
20260508173248 59 113 1.0 3.0 0.00 0.00 0.00 51 1017.5
20260508172227 59 0 1.0 4.0 0.00 0.00 0.00 50 1017.3
20260508171207 60 180 3.0 6.0 0.00 0.00 0.00 49 1017.2
20260508170204 60 180 3.0 9.0 0.00 0.00 0.00 49 1017.2
20260508164103 60 0 3.0 9.0 0.00 0.00 0.00 47 1017.1
20260508163104 61 0 2.0 6.0 0.00 0.00 0.00 46 1017.1
20260508162019 61 90 3.0 7.0 0.00 0.00 0.00 46 1017.0
20260508160958 62 0 4.0 13.0 0.00 0.00 0.00 45 1017.0
20260508155952 62 0 2.0 9.0 0.00 0.00 0.00 45 1017.0
20260508153858 62 45 4.0 10.0 0.00 0.00 0.00 44 1017.0
20260508152826 63 45 4.0 11.0 0.00 0.00 0.00 44 1017.0
20260508151802 63 0 2.0 10.0 0.00 0.00 0.00 46 1017.0
20260508150721 64 0 5.0 12.0 0.00 0.00 0.00 43 1017.0
20260508145720 64 45 2.0 11.0 0.00 0.00 0.00 43 1017.0
20260508144700 63 0 2.0 7.0 0.00 0.00 0.00 40 1017.1
20260508143639 64 180 3.0 9.0 0.00 0.00 0.00 38 1017.2
20260508142610 64 0 4.0 12.0 0.00 0.00 0.00 39 1017.2
20260508135502 64 180 4.0 17.0 0.00 0.00 0.00 35 1017.5
20260508134433 64 180 3.0 12.0 0.00 0.00 0.00 35 1017.5
20260508133405 63 0 4.0 12.0 0.00 0.00 0.00 37 1017.5
20260508132345 64 180 4.0 11.0 0.00 0.00 0.00 35 1017.6
20260508131313 64 0 3.0 11.0 0.00 0.00 0.00 36 1017.9
20260508125309 64 180 2.0 11.0 0.00 0.00 0.00 38 1017.9
20260508124249 63 0 4.0 11.0 0.00 0.00 0.00 36 1018.0
20260508123216 63 0 4.0 14.0 0.00 0.00 0.00 37 1018.0
20260508122204 63 180 4.0 11.0 0.00 0.00 0.00 37 1018.0
20260508121140 63 180 4.0 10.0 0.00 0.00 0.00 39 1017.9
20260508115057 63 180 3.0 11.0 0.00 0.00 0.00 39 1018.0
20260508114033 62 180 3.0 9.0 0.00 0.00 0.00 40 1018.0
20260508113007 62 0 4.0 12.0 0.00 0.00 0.00 41 1018.0
20260508111936 62 45 2.0 11.0 0.00 0.00 0.00 42 1018.0
20260508110910 62 23 2.0 9.0 0.00 0.00 0.00 43 1018.1
20260508104815 61 45 4.0 13.0 0.00 0.00 0.00 42 1018.2
20260508103815 61 0 4.0 14.0 0.00 0.00 0.00 44 1018.4
20260508102752 60 0 4.0 14.0 0.00 0.00 0.00 42 1018.4
20260508101728 60 45 5.0 16.0 0.00 0.00 0.00 44 1018.6
20260508100707 60 180 5.0 14.0 0.00 0.00 0.00 42 1018.5
20260508094627 59 113 4.0 12.0 0.00 0.00 0.00 48 1018.7
20260508093621 59 180 5.0 12.0 0.00 0.00 0.00 43 1018.7
20260508092616 59 0 3.0 11.0 0.00 0.00 0.00 44 1018.7
20260508091615 58 180 4.0 11.0 0.00 0.00 0.00 44 1018.7
20260508090611 58 45 3.0 10.0 0.00 0.00 0.00 45 1018.7
20260508083533 57 0 3.0 12.0 0.00 0.00 0.00 52 1018.6
20260508082503 56 0 4.0 13.0 0.00 0.00 0.00 52 1018.6
20260508081451 56 0 4.0 13.0 0.00 0.00 0.00 51 1018.7
20260508080449 56 0 3.0 10.0 0.00 0.00 0.00 53 1018.7
20260508075416 55 180 3.0 9.0 0.00 0.00 0.00 53 1018.7
20260508074343 54 45 4.0 10.0 0.00 0.00 0.00 55 1018.6
20260508073317 53 180 4.0 9.0 0.00 0.00 0.00 55 1018.6
20260508070212 51 180 3.0 8.0 0.00 0.00 0.00 62 1018.4
20260508065210 49 180 3.0 9.0 0.00 0.00 0.00 66 1018.4
20260508064148 46 180 1.0 5.0 0.00 0.00 0.00 73 1018.3
20260508063119 44 180 1.0 4.0 0.00 0.00 0.00 82 1018.3
20260508062105 41 180 1.0 4.0 0.00 0.00 0.00 89 1018.2
20260508054944 39 0 0.0 3.0 0.00 0.00 0.00 95 1018.2
20260508053912 38 45 0.0 0.0 0.00 0.00 0.00 95 1018.1
20260508052841 38 45 0.0 0.0 0.00 0.00 0.00 95 1018.1
20260508051815 37 45 0.0 0.0 0.00 0.00 0.00 94 1018.1
20260508050810 37 45 0.0 0.0 0.00 0.00 0.00 94 1018.0
20260508044731 36 45 0.0 0.0 0.00 0.00 0.00 92 1017.9
20260508043700 36 45 0.0 0.0 0.00 0.00 0.00 92 1017.8
20260508042630 36 45 0.0 0.0 0.00 0.00 0.00 91 1017.8
20260508041628 36 45 0.0 0.0 0.00 0.00 0.00 91 1017.8
20260508040627 36 45 0.0 0.0 0.00 0.00 0.00 91 1017.8
20260508035608 36 45 0.0 1.0 0.00 0.00 0.00 91 1017.8
20260508034549 37 45 0.0 2.0 0.00 0.00 0.00 91 1017.7
20260508033530 37 45 0.0 2.0 0.00 0.00 0.00 90 1017.7
20260508032507 37 45 0.0 1.0 0.00 0.00 0.00 90 1017.7
20260508031506 37 45 0.0 1.0 0.00 0.00 0.00 90 1017.6
20260508030504 37 45 0.0 0.0 0.00 0.00 0.00 90 1017.6
20260508025446 37 45 0.0 1.0 0.00 0.00 0.00 90 1017.6
20260508024418 38 45 0.0 1.0 0.00 0.00 0.00 90 1017.5